Voltar ao catálogo

CZ-6A DEB

AtivoSSO
NORAD 54516·DEBRIS·🇨🇳 China

Lançado Nov 11, 2022 de Taiyuan Satellite Launch Center

Loading…

Próximas Passagens (próximas 24 horas)

TLE

AtualizadoSource: Space-Track

Época: Sep 14, 2026, 00:50 UTC

1 54516U 22151JU  26257.03520904  .00000761  00000-0  21594-3 0  9995
2 54516  98.5388 288.3076 0136164  74.8092 286.8109 14.43095991201584

Acompanhe CZ-6A DEB em tempo real com AllMySat

Download on the App Store